TIME,DELAY(SENSOR),PRES,T(CTD),SAL,OXYGEN,RAWTEMP,T(OPTODE),TCPHASE,FLUOR,BETA(BETA700),BETA(BETA412),BETA(BETA440),CDOM,C(CSC),ED(ED412.40),ED(ED444.00),ED(ED489.70),ED(ED554.30),LU(LU411.80),LU(LU443.40),LU(LU489.60),LU(LU554.10),COMP,TILTX,TILTX(TILTY),CHECK
1348953288,5806,493.3599853515625000,6.6027998924255370,34.1366004943847660,80.7153778076171900,600.1525878906250000,6.5793361663818360,48.8287315368652340,52,105,91,80,79,15228,2147756662,2147420306,2148006902,2147872886,2147629120,2147081810,2148247049,2147198802,1043,4,13,26954
1348953411,5809,482.3299865722656000,6.7357001304626465,34.1311988830566400,83.9268875122070300,596.0689697265625000,6.7111778259277340,48.3955192565918000,51,106,91,79,79,15226,2147755099,2147420269,2148006454,2147872832,2147632384,2147079661,2148243355,2147198912,806,5,13,27605
1348953542,5807,471.0299987792969000,6.8587999343872070,34.1265983581543000,89.0436477661132800,591.8508911132812000,6.8471980094909670,47.7525291442871100,52,103,89,80,80,15227,2147749046,2147422592,2148006107,2147874944,2147630829,2147077988,2148242304,2147197440,729,5,13,43517
1348953675,5810,460.1300048828125000,7.0935001373291020,34.1166000366210940,96.6189270019531200,584.8579711914062000,7.0723290443420410,46.8168601989746100,52,106,90,80,78,15226,2147749622,2147422884,2148002093,2147874102,2147630162,2147082468,2148243529,2147198262,775,4,13,17683
1348953817,5807,449.6400146484375000,7.2417998313903810,34.1185989379882800,101.2972030639648400,580.0358276367188000,7.2273159027099610,46.2468681335449200,51,105,88,81,79,15227,2147748324,2147421778,2148004352,2147871808,2147629430,2147085339,2148238509,2147201088,3153,4,13,45071
1348954014,5806,435.9800109863281000,7.5317001342773440,34.1176986694335940,108.2445983886718800,571.2202758789062000,7.5101070404052730,45.3883590698242200,51,108,90,80,78,15230,2147747913,2147420653,2148003520,2147870198,2147626459,2147085248,2148238180,2147201545,1977,4,13,18547
1348954149,5805,424.7099914550781000,7.6375999450683590,34.1165008544921900,111.4335021972656200,567.7894897460938000,7.6199798583984375,45.0135383605957000,51,106,90,79,77,15229,2147745088,2147424804,2148001024,2147874788,2147627538,2147088292,2148237769,2147200448,792,5,13,2392
1348954293,5809,413.0100097656250000,7.9720997810363770,34.1087989807128900,123.2855987548828100,557.4083862304688000,7.9518132209777830,43.6957283020019500,50,106,88,80,76,15228,2147747410,2147421211,2148005220,2147872822,2147622153,2147085284,2148241654,2147197988,718,5,13,27755
1348954446,5806,401.4100036621094000,8.1798000335693360,34.0997009277343750,134.5220031738281200,549.2941894531250000,8.2105512619018550,42.5379219055175800,50,106,89,80,75,15228,2147746651,2147421037,2148000420,2147873444,2147618258,2147094253,2148237330,2147201088,1024,5,13,58509
1348954589,5808,390.9599914550781000,8.3999004364013670,34.0836982727050800,149.3674011230468800,543.6552124023438000,8.3900432586669920,41.1819496154785160,50,104,89,78,76,15231,2147744704,2147422272,2148008027,2147871259,2147620480,2147095323,2148238253,2147199808,1504,4,13,22988
1348954723,5809,379.4700012207031000,8.6618995666503900,34.0792999267578100,159.9049987792968800,535.6530151367188000,8.6443119049072270,40.2086296081543000,50,105,90,80,74,15231,2147742985,2147422683,2148003885,2147872292,2147619611,2147092315,2148230537,2147200146,59,4,12,48593
1348954843,5809,367.9100036621094000,8.9174995422363280,34.0914993286132800,166.5888061523437500,527.5831909179688000,8.9002227783203120,39.5646400451660160,50,104,86,80,75,15228,2147744054,2147419757,2148004553,2147871241,2147618870,2147097792,2148234569,2147201718,2942,4,13,2490
1348954955,5809,356.6799926757812500,9.1681995391845700,34.1060981750488300,172.3397064208984400,519.5015258789062000,9.1560115814208980,39.0045204162597660,50,105,91,79,74,15229,2147741942,2147422592,2148002998,2147872996,2147621485,2147099657,2148226203,2147198336,3223,4,13,55254
1348955054,5806,346.2900085449219000,9.3359003067016600,34.1111984252929700,176.5148925781250000,513.9562988281250000,9.3312320709228520,38.6109313964843750,49,105,90,83,73,15229,2147740900,2147424201,2148007433,2147872685,2147617280,2147101129,2148231625,2147205833,2825,4,13,32090
1348955163,5810,334.5599975585937500,9.4205999374389650,34.1071014404296900,181.0977020263672000,511.3742065429687500,9.4127483367919920,38.2490081787109400,50,104,88,80,73,15229,2147741760,2147425380,2148005613,2147874349,2147618102,2147102582,2148230948,2147198628,762,4,14,10346
1348955294,5806,321.8999938964844000,9.6296997070312500,34.1020011901855500,185.4111938476562500,504.4621887207031000,9.6307163238525390,37.8388786315918000,49,106,89,80,72,15227,2147742500,2147422454,2148010688,2147870400,2147617664,2147100736,2148235126,2147200768,904,4,13,18161
1348955433,5811,312.0299987792969000,9.9434995651245120,34.1133003234863300,189.2765045166015600,495.0799865722656000,9.9260473251342770,37.4231414794921900,50,109,88,81,73,15225,2147736384,2147423067,2148020681,2147872310,2147615616,2147103963,2148229430,2147204918,1241,4,13,49286
1348955629,5810,299.2900085449219000,10.5593996047973630,34.1236991882324200,194.5487976074218800,475.3157043457031000,10.5462398529052730,36.7503700256347660,49,110,86,81,72,15227,2147738368,2147429238,2148028050,2147871030,2147614043,2147112594,2148232292,2147203163,1858,4,13,50160
1348955760,5808,288.7900085449219000,10.9010000228881840,34.1286010742187500,201.9900970458984400,464.1990966796875000,10.8939695358276370,36.1033287048339840,48,105,87,80,70,15226,2147735808,2147429376,2148037156,2147871094,2147610697,2147109193,2148238290,2147206646,1156,4,13,5678
1348955902,5807,276.4700012207031000,11.5679998397827150,34.1601982116699200,206.4049987792968800,442.6648864746094000,11.5654802322387700,35.4871597290039060,49,106,88,78,70,15221,2147732635,2147434587,2148057645,2147871835,2147607734,2147123154,2148239597,2147204132,1081,4,13,1762
1348956014,5809,265.3099975585937500,12.0504999160766600,34.1986999511718750,205.9837951660156200,426.8129882812500000,12.0581502914428710,35.2582092285156250,48,104,91,79,70,15221,2147733897,2147432420,2148034633,2147871734,2147604068,2147122669,2148228205,2147206317,675,4,13,33807
1348956134,5812,253.8099975585937500,12.5645999908447270,34.2210998535156250,207.5202026367187500,409.8941955566406000,12.5825901031494140,34.8996086120605500,49,104,87,80,68,15221,2147732388,2147456786,2148112658,2147868626,2147600905,2147138953,2148265124,2147208612,3249,4,13,48656
1348956246,5809,243.4299926757812500,13.6239004135131840,34.3119010925293000,205.8916015625000000,374.8286132812500000,13.6654195785522460,34.4507789611816400,50,106,87,80,69,15221,2147733037,2147470729,2148154203,2147872429,2147600457,2147151341,2148281627,2147207222,3148,3,13,58110
1348956366,5810,232.6199951171875000,13.9658002853393550,34.3475990295410160,207.5751953125000000,364.2705993652344000,13.9905099868774410,34.1916007995605500,49,107,90,81,69,15220,2147734738,2147499922,2148223652,2147872996,2147590262,2147173961,2148312914,2147216438,1378,4,14,30391
1348956486,5804,221.1900024414062500,14.4617004394531250,34.3867988586425800,207.7216949462890600,346.9931030273437500,14.5216703414917000,33.9225196838378900,49,106,88,81,68,15214,2147737581,2147542144,2148308763,2147872576,2147596096,2147200859,2148347218,2147218733,2200,4,13,39979
1348956609,5811,210.0399932861328000,15.5177001953125000,34.4743995666503900,209.1031951904297000,315.6546936035156000,15.4828901290893550,33.3781890869140600,49,106,89,81,67,15215,2147747072,2147606985,2148464438,2147872182,2147595492,2147240182,2148423625,2147225197,2568,2,14,28587
1348956740,5808,199.5099945068359400,16.2336997985839840,34.5634994506835940,213.6708068847656200,291.2123107910156000,16.2310390472412100,32.7668190002441400,50,105,89,81,67,15216,2147759131,2147669769,2148564617,2147871149,2147598582,2147280960,2148458697,2147230217,1033,4,14,532
1348956794,5809,195.2200012207031200,16.3761005401611330,34.5791015625000000,214.6764984130859400,285.5820922851562500,16.4032192230224600,32.6308593750000000,50,105,89,80,67,15211,2147770770,2147729042,2148685312,2147871305,2147601764,2147317494,2148518500,2147231972,1319,3,14,14944
1348956868,5810,189.6699981689453000,16.5886001586914060,34.6001014709472660,216.8802947998047000,279.5679016113281000,16.5870990753173830,32.4248008728027340,49,105,88,80,66,15211,2147780626,2147757988,2148717083,2147871140,2147600539,2147335981,2148530633,2147238646,1475,3,14,15953
1348956922,5809,185.8600006103515600,16.6459007263183600,34.6066017150878900,217.9449005126953000,277.4637145996094000,16.6514301300048830,32.3379211425781250,50,104,87,79,65,15212,2147806208,2147883931,2148991963,2147873609,2147611117,2147416493,2148672777,2147245412,1733,3,15,41113
1348956976,5810,181.8600006103515600,17.1215991973876950,34.6643981933593750,217.8166046142578000,265.5321960449219000,17.0160598754882800,32.1758117675781250,50,105,91,81,66,15213,2147824137,2147959414,2149124470,2147877421,2147619145,2147460178,2148740187,2147250212,1916,4,14,59293
1348957030,5808,178.1499938964843800,17.3344993591308600,34.6950988769531250,218.2474975585937500,257.5492858886719000,17.2599506378173830,32.0405311584472660,50,105,89,80,65,15211,2147844982,2148028105,2149249974,2147877558,2147628891,2147503524,2148807643,2147254281,2528,4,15,50
1348957095,5809,173.5200042724609400,17.6049995422363280,34.7430992126464840,218.9785003662109400,246.6230010986328000,17.5936908721923830,31.8487396240234380,50,104,87,81,65,15209,2147880448,2148144237,2149452836,2147876992,2147643584,2147575817,2148910509,2147261421,3168,3,15,48216
1348957173,5807,168.2700042724609400,17.7145004272460940,34.7514991760253900,220.1551971435547000,243.2794952392578000,17.6958007812500000,31.7402896881103500,50,109,90,80,67,15202,2147931200,2148293485,2149724617,2147878930,2147660480,2147672429,2149035126,2147268315,3192,3,15,14226
1348957249,5811,164.5399932861328000,17.9820003509521500,34.7823982238769500,220.2666931152343800,234.9232940673828000,17.9509906768798830,31.6185398101806640,51,101,89,80,65,15206,2147970020,2148401810,2149905133,2147878820,2147677101,2147736365,2149135853,2147277787,234,3,15,61827
1348957358,5810,161.2500000000000000,18.2374992370605470,34.8219985961914060,220.7463073730468800,226.5704040527343800,18.2060699462890620,31.4785308837890620,52,105,87,80,65,15206,2147936356,2148218450,2149482724,2147878070,2147669165,2147635584,2148927168,2147265746,788,3,15,50124
1348957553,5807,157.2100067138672000,18.7476997375488280,34.9077987670898440,221.5167999267578000,207.7178039550781200,18.7818298339843750,31.1807193756103500,55,105,90,80,63,15201,2148092498,2148672310,2150341165,2147884141,2147729993,2147915446,2149358427,2147299154,2603,3,15,36608
1348957706,5805,153.1399993896484400,19.3936996459960940,35.0112991333007800,224.0567932128906200,188.4817047119140600,19.3695106506347660,30.7907295227050780,60,107,88,82,64,15187,2148176530,2148867136,2150676443,2147885632,2147769654,2148048073,2149530669,2147310006,2246,3,15,40576
1348957817,5808,148.1499938964843800,19.5907001495361330,35.0433998107910160,224.9734039306640600,181.0585937500000000,19.5963897705078120,30.6448707580566400,63,107,89,81,64,15190,2148246701,2148967222,2150783277,2147888091,2147806061,2148115200,2149569920,2147315648,1815,3,15,55605
1348957882,5809,144.4700012207031200,19.6830005645751950,35.0587005615234400,226.3430023193359400,178.5050048828125000,19.6744499206542970,30.5421504974365230,63,112,89,82,63,15179,2148056630,2148349485,2149590518,2147880804,2147727131,2147758692,2149003172,2147275282,1682,3,15,37111
1348957958,5806,140.1399993896484400,19.8787002563476560,35.0881996154785160,226.6623992919922000,172.2606964111328000,19.8653697967529300,30.4431095123291000,67,112,87,83,62,15186,2148524854,2149504320,2151648585,2147897398,2147942034,2148467053,2150020726,2147348022,1597,3,15,56841
1348958034,5811,136.3099975585937500,20.0743999481201170,35.1204986572265600,227.2574005126953000,165.3683013916015600,20.0761795043945300,30.3221797943115230,73,113,92,81,63,15180,2148862482,2150229037,2152915264,2147914514,2148098432,2148912045,2150635346,2147392036,1081,2,15,12540
1348958113,5809,132.9400024414062500,20.4216003417968750,35.1637001037597660,227.9022979736328000,154.9597930908203000,20.3946704864501950,30.1530094146728500,81,115,88,82,63,15166,2148981613,2150360448,2153090075,2147918528,2148157403,2148992502,2150721371,2147398390,3400,2,15,64179
1348958233,5807,128.8699951171875000,20.5933990478515620,35.1897010803222660,229.7122039794922000,148.8321990966797000,20.5822696685791000,29.9838008880615230,92,118,89,82,62,15158,2149222180,2150733641,2153613348,2147930066,2148271424,2149169792,2150915757,2147416566,2523,2,15,28362
1348958353,5806,125.1399993896484400,20.7423000335693360,35.2043991088867200,230.6013031005859400,143.8932952880859400,20.7335300445556640,29.8760700225830080,98,119,90,82,62,15149,2149670528,2151563794,2154987364,2147953846,2148486528,2149632365,2151541595,2147464914,1689,2,15,21077
1348958464,5810,120.7600021362304700,20.9137001037597660,35.2207984924316400,231.3954925537109400,138.3798980712890600,20.9024600982666000,29.7660999298095700,101,123,91,82,63,15140,2150273984,2152562861,2156607936,2147985316,2148749339,2150122715,2152212196,2147519350,348,3,15,63908
1348958551,5811,116.8499984741211000,21.1478996276855470,35.2498016357421900,232.0373992919922000,130.6537017822265600,21.1392898559570300,29.6349601745605470,113,124,93,83,62,15129,2149142098,2150049956,2152082450,2147928685,2148229275,2148682898,2150091520,2147365686,851,2,15,26423
1348958649,5806,112.9000015258789000,21.2700004577636720,35.2598991394043000,234.6136932373047000,126.6006011962890600,21.2635993957519530,29.4600200653076170,124,130,94,84,61,15106,2151644626,2154710784,2159732827,2148058788,2149310720,2150994998,2153332425,2147629522,943,2,15,58964
1348958749,5806,108.6500015258789000,21.4599990844726560,35.2764015197753900,237.6622924804687500,120.4004974365234400,21.4538307189941400,29.2377490997314450,124,126,92,84,62,15099,2152608722,2156102582,2161616886,2148112914,2149695744,2151557430,2154025042,2147693878,792,2,15,45517
1348958836,5810,104.5599975585937500,21.5958003997802730,35.2812995910644500,239.0892944335937500,116.5542984008789000,21.5718898773193360,29.1225605010986330,127,128,94,85,62,15092,2153409453,2157198637,2163035812,2148179154,2150019584,2151998646,2154543094,2147752155,548,3,15,20521
1348958923,5808,100.4899978637695300,21.6483001708984380,35.2807006835937500,240.2599029541015600,112.9421997070312500,21.6828098297119140,29.0227699279785160,130,132,94,86,63,15081,2155060891,2159811702,2166715373,2148304649,2150697874,2153088155,2155904438,2147887698,1170,2,16,16712
1348958977,5808,98.1500015258789000,21.7397003173828120,35.2862014770507800,241.1051940917968800,110.8855972290039000,21.7459793090820300,28.9579505920410160,143,131,92,84,61,15061,2156067401,2161295213,2168668626,2148380608,2151122925,2153700736,2156647561,2147968722,1778,2,15,1696
1348959034,5808,96.0000000000000000,21.8260993957519530,35.2887992858886700,242.0625000000000000,108.5304031372070300,21.8183403015136720,28.8846702575683600,138,129,92,84,62,15071,2157166125,2162870363,2170603949,2148454162,2151553243,2154302546,2157305179,2148041124,1255,2,15,45158
1348959088,5808,94.0899963378906200,21.8619995117187500,35.2874984741210940,242.8621063232422000,107.0083999633789000,21.8651103973388670,28.8290405273437500,133,130,92,84,61,15081,2158709229,2164919085,2173105499,2148564470,2152195145,2155244992,2158374244,2148154011,620,2,15,22125
1348959154,5812,91.9000015258789000,21.9500999450683600,35.2840003967285160,243.8972015380859400,104.5029983520507800,21.9421100616455080,28.7507896423339840,128,126,92,83,61,15075,2158862921,2164600164,2171818011,2148543488,2152332260,2155218733,2158148809,2148139163,3335,2,15,45095
1348959209,5808,90.2200012207031200,22.0853004455566400,35.2733993530273440,244.8170013427734400,100.4607009887695300,22.0663890838623050,28.6586494445800780,115,122,92,84,61,15083,2156251072,2159912265,2164300754,2148322889,2151246829,2153060708,2155095853,2147865563,2920,2,15,12001
1348959285,5809,88.4100036621093800,22.1270999908447270,35.2789001464843750,245.9331970214843800,98.7401733398437500,22.1193008422851560,28.5873603820800780,109,121,94,83,62,15095,2163728566,2171598866,2180436178,2148890880,2154379446,2158135734,2161249371,2148474185,2025,2,16,30334
1348959374,5808,85.8199996948242200,22.2640991210937500,35.2760009765625000,246.5281982421875000,94.1809692382812500,22.2595691680908200,28.5036106109619140,94,120,92,84,59,15094,2166606052,2174913517,2183464612,2149092992,2155858861,2160063515,2163068114,2148676580,2094,2,15,19491
1348959429,5807,83.6800003051757800,22.3759994506835940,35.2636985778808600,247.1428985595703000,89.7751770019531200,22.3951892852783200,28.4211597442626950,88,123,90,83,60,15096,2169556278,2178588544,2187385426,2149306806,2157309970,2162019172,2165034660,2148890139,1911,2,15,13633
1348959483,5810,81.9700012207031200,22.5772991180419920,35.2430000305175800,246.9680023193359400,84.1059265136718800,22.5697898864746100,28.3577594757080080,91,122,91,84,63,15081,2171920594,2181478363,2190445741,2149489197,2158356187,2163365824,2166253504,2149017508,1134,2,15,58802
1348959560,5808,80.6800003051757800,22.6487007141113280,35.2420997619628900,247.3314971923828000,81.6924819946289000,22.6441593170166000,28.3116798400878900,88,122,95,84,61,15083,2173729536,2183231405,2191864566,2149578660,2159362706,2164694720,2167540864,2149158491,426,2,16,25018
1348959637,5809,79.6600036621093800,22.7740001678466800,35.2396011352539060,247.0841979980468800,77.8098068237304700,22.7638492584228500,28.2738399505615230,86,123,93,85,57,15075,2175250642,2184918601,2193400438,2149723894,2160050349,2165482578,2168166226,2149234368,471,2,15,30560
1348959748,5809,76.7399978637695300,23.0708999633789060,35.2620010375976560,246.0679016113281200,68.9160385131836000,23.0382308959960940,28.2074394226074220,80,126,92,84,61,15085,2182341065,2193209792,2202099072,2150323904,2163493056,2169908992,2172333586,2149712850,157,3,15,23709
1348959803,5805,74.4100036621093800,23.1441993713378900,35.2610015869140600,245.8370971679687500,66.9394531250000000,23.0992603302001950,28.1930694580078120,77,126,93,84,59,15080,2186872978,2198226998,2207095488,2150830418,2165843520,2172781449,2174801846,2150029376,649,3,15,28468
1348959857,5810,71.9800033569336000,23.2432003021240230,35.2551994323730500,245.6985015869140600,62.8880195617675800,23.2243900299072270,28.1486797332763670,76,127,91,84,62,15080,2191699913,2203370578,2211720466,2151302080,2168634349,2176068516,2177521718,2150359360,1098,2,16,41643
1348959912,5806,69.7900009155273400,23.3353004455566400,35.2509002685546900,246.2221984863281200,59.6717605590820300,23.3237800598144530,28.0856208801269530,76,124,93,85,59,15077,2196501101,2208432932,2216779053,2151833298,2171472713,2179477321,2180564681,2150722285,988,2,15,38446
1348959967,5809,68.1200027465820300,23.4442005157470700,35.2504005432128900,246.5561065673828000,56.3698310852050800,23.4258594512939450,28.0301609039306640,77,125,91,85,58,15078,2200109851,2211966692,2220190902,2152389586,2173572763,2181903414,2182681179,2151005330,423,2,15,55651
1348960045,5809,65.9700012207031200,23.5715007781982420,35.2573013305664060,246.8059997558593800,51.4939498901367200,23.5766906738281250,27.9586906433105470,75,124,92,85,60,15071,2207066422,2218715675,2226140973,2153061641,2177683785,2186473590,2186307062,2151471789,30,2,15,61111
1348960099,5811,64.2300033569336000,23.8791999816894530,35.2718009948730500,246.7111053466797000,42.2887115478515600,23.8617496490478500,27.8491401672363280,71,124,91,85,57,15066,2211077549,2222192301,2228826523,2153728054,2180416365,2189072374,2188047533,2151723620,3312,2,16,49645
1348960176,5808,62.5999984741210940,24.2280006408691400,35.2705993652343750,247.0758972167968800,33.0482597351074200,24.1483001708984380,27.7192497253417970,70,125,96,86,57,15058,2217681069,2229380790,2235900068,2154497892,2184210038,2193042038,2191007314,2152111771,2996,2,16,47793
1348960364,5807,60.0099983215332000,24.3931007385253900,35.2854003906250000,248.0251007080078000,25.5568199157714840,24.3809394836425780,27.5862998962402340,69,127,93,86,60,15047,2230429714,2242003885,2247178907,2156092050,2193762843,2203286089,2198862080,2153205120,1143,2,16,45239
1348960419,5807,57.8400001525878900,24.3994007110595700,35.2867012023925800,248.3096008300781200,25.0031204223632800,24.3981399536132800,27.5673294067382800,70,125,95,85,58,15041,2239218029,2251097307,2255615469,2157435264,2199889344,2209423213,2203373257,2153807369,1256,2,16,19485
1348960473,5810,55.5299987792968750,24.4890003204345700,35.2887992858886700,247.9815979003906200,21.9870891571044920,24.4918899536132800,27.5443992614746100,69,129,93,86,57,15040,2247307849,2257990628,2261154752,2158896438,2207657801,2217470555,2209584137,2154702939,1444,2,17,57948
1348960528,5809,53.4900016784668000,24.5839996337890620,35.2881011962890600,248.1965026855468800,19.4016304016113280,24.5722999572753900,27.5034198760986330,66,127,95,86,57,15030,2232537490,2238700964,2238876278,2157119890,2199325248,2205484818,2197321078,2153412470,1670,2,16,30078
1348960582,5808,52.0200004577636700,24.5937004089355470,35.2825012207031250,248.2109985351562500,18.7986602783203120,24.5910491943359380,27.4955291748046880,64,124,94,88,57,15042,2186041856,2184529206,2181516086,2150970578,2171603437,2171894582,2167173421,2149515227,684,2,16,22394
1348960660,5810,49.5499992370605500,25.2290000915527340,35.2988014221191400,246.0167999267578000,-1.2873710393905640,25.2170295715332030,27.3443202972412100,63,127,93,86,58,15029,2268665700,2275865974,2276658669,2163747940,2223379053,2231306989,2218684123,2156434084,3147,2,16,40386
1348960715,5806,48.4300003051757800,25.7012996673584000,35.3093986511230500,243.6016998291015600,-15.0286998748779300,25.6466407775878900,27.2812995910644530,60,128,92,85,58,15039,2277268992,2284035227,2283810642,2164898020,2233814134,2241868077,2226749293,2157378185,2970,2,16,39345
1348961090,5809,46.2900009155273440,26.1520004272460940,35.3134002685546900,236.4147949218750000,-30.9920997619628900,26.1472206115722660,27.4038791656494140,58,127,93,86,56,15041,2291748425,2298834870,2298366985,2168857353,2254557083,2259616768,2237908096,2159162212,3030,2,16,63474
1348961167,5807,44.2799987792968750,26.1678009033203120,35.3137016296386700,235.4503936767578000,-31.8907108306884770,26.1754493713378900,27.4360694885253900,58,126,93,87,57,15047,2289710573,2296690605,2295895588,2170288484,2254957970,2257646354,2234744868,2159009462,2729,2,16,23501
1348961244,5807,42.1699981689453100,26.1737003326416000,35.3157997131347660,234.8789062500000000,-32.1479797363281250,26.1835308074951170,27.4587097167968750,57,127,94,86,55,15040,2288864118,2295028653,2293741723,2171505545,2264578560,2266014564,2240264557,2160143524,2538,2,16,16077
1348961322,5805,39.4300003051757800,26.1847000122070300,35.3146018981933600,234.6363983154297000,-32.3115310668945300,26.1886692047119140,27.4677295684814450,56,128,96,86,57,15045,2284608758,2288071597,2284561307,2172474596,2276372818,2274424146,2244173924,2160973357,2611,2,16,37249
1348961377,5808,36.7700004577636700,26.1816005706787100,35.3138999938964840,234.5843048095703000,-32.2258682250976560,26.1859798431396500,27.4711799621582030,57,125,95,87,57,15035,2239038582,2237050395,2231234678,2163556617,2241825197,2235932772,2212094061,2156035154,2507,2,16,30852
1348961432,5809,34.0200004577636700,26.1865005493164060,35.3129005432128900,234.5592041015625000,-32.3665084838867200,26.1903991699218750,27.4706096649169920,56,124,92,86,58,15044,2352708251,2363714112,2365152265,2200055140,2351699172,2345639506,2296384795,2171041609,2375,2,16,34100